Epoch 2011 Apr. 29.0 TT = JDT 2455680.5 T 2011 Apr. 18.00238 TT MPC q 0.8833786 (2000.0) P Q z +0.0029077 Peri. 84.47386 +0.11116951 +0.99184388 +/-0.0000016 Node 192.43829 -0.98724200 +0.10302220 e 0.9974314 Incl. 16.82566 -0.11399370 +0.07504764 From 560 observations 2011 Jan. 14-Nov. 18, mean residual 0".5.
m1 = 10.0 + 5 log d + 25.0 log r(t - 5) [ ,5] ( - 2011 Apr. 23) m1 = 9.7 + 5 log d + 20.0 log r(t - 5) [5, ] (2011 Apr. 23 - )